Terminal Aerodrome Forecast
Issued by NWS Grand Forks, ND

Home | Current Version | Previous Version | Graphics & Text | Print | Product List | Glossary On
Versions: 1 2 3 4 5 6 7 8 9 10 11 12 13
000
FTUS43 KFGF 181135
TAFFAR
TAF
KFAR 181135Z 1812/1912 35006KT P6SM BKN120
     FM181500 03009KT P6SM BKN120
     FM181800 02013KT P6SM BKN200
     FM190200 VRB05KT P6SM SCT250=

USA.gov is the U.S. government's official web portal to all federal, state and local government web resources and services.